ATLAS 5 CENTAUR DEB, 49048

Orbit data source: Space-Track

ATLAS 5 CENTAUR DEB, 49048 is space debris in HEO originally from a launch on Wed, 17 Sep 2014 UTC launched from the Air Force Eastern Test Range (AFETR). Debris objects in space refer to the collection of defunct objects orbiting the Earth. Examples of debris include non-operational satellites, rocket bodies, and fragments generated from explosions, collisions, or faulty payload assembly.

Loading next visibility...
Identifier
49048, 2014-055DG
Orbit
HEO
Country
Flag of USUS
Related business
Flag of USUnited Launch Alliance/Lockheed Martin (US)
Manufacturer
Unknown
Mission
Spacecraft
Bus & Motor
Unknown
Mass
Unknown
Launch date (UTC)
2014-09-17 (11 years ago)
Launch vehicle
Unknown
Launch site
Air Force Eastern Test Range (AFETR)
Object type
Payload
Rocket body
Debris
Shape & HBR
Unknown shape, 1.1 m
Radar Cross Section
Small (<0.1 m²)

Expand to show TLE details & history
Last TLE update: 4 months ago

TLE from 4 months ago
0 ATLAS 5 CENTAUR DEB
1 49048U 14055DG  25212.43943909 -.00000103  00000-0  00000-0 0  9998
2 49048  20.3697 147.3262 4831604 161.8082 224.3322  1.93364545 40845
Epoch: 2025-07-31T10:32Z
TLE epoch observation values (Epoch: 2025-07-31T10:32:47.537Z)
Latitude
Longitude
39.78534°
Altitude
32,200.922 km
Speed
2.453 km/s
True Right ascension
09h 49m 09s
True Declination
0° 00' 00"
Sunlit
Object was in daylight at epoch
Visualization orbit readout
Latitude
Unknown
Longitude
Unknown
Altitude
Unknown
Speed
Unknown
Apparent Right ascension
Unknown
Apparent Declination
Unknown
Sunlit
N/A
Visualization observer readout
Local Sidereal Time
05:06:23
Azimuth
Unknown
Elevation
Unknown
Doppler factor
Unknown
Orbital elements
Apogee altitude
33,989.855 km
Perigee altitude
7,688.971 km
Semi-major axis
27,217.55 km
Eccentricity
0.48316
Inclination
20.3697°
RAAN
147.3262°
Arg. of periapsis
161.8082°
True anomaly
198.19027°
Mean anomaly
224.3322°
Eccentric anomaly
210.34611°
Mean motion
0.48336 °/min
Orbital period
744.79 mins
BSTAR
0
Loading maneuver chart data...
Computing Atmospheric mass density...

Documentation

Showing up to 5 results
|